Chehalis, WA
on Thursday, November 15, 2012

Thursday
Previous Day Next Day
Daily Summary
 ActualAverage (KOLM)Record (KOLM)
Temperature
Mean Temperature °F 43°F  
Max Temperature 46°F 50°F 63°F (2001)
Min Temperature 39°F 37°F -1°F (1955)
Degree Days
Heating Degree Days 22 22  
Month to date heating degree days 300  
Since 1 July heating degree days 1094  
Cooling Degree Days 0 0  
Month to date cooling degree days 0  
Year to date cooling degree days 106  
Moisture
Dew Point 40°F   
Average Humidity 93    
Maximum Humidity 100    
Minimum Humidity 81    
Precipitation
Precipitation 0.00 in 0.30 in 1.35 in (1973)
Month to date precipitation 4.07  
Year to date precipitation 37.98  
Wind
Wind Speed 3 mph   
Max Wind Speed 10 mph   
Max Gust Speed mph   
Visibility 6 miles   
Events Fog   

Key: T is trace of precipitation, MM is missing value
Source: NWS Daily Summary
Time(PST)TemperatureDew PointHumidity Pressure Visibility Wind DirectionWind SpeedGust SpeedPrecipitationEvents Conditions
12:15 AM 39.2°F 39.2°F 100% 30.27 in 0.2 miles Calm Calm - N/A Fog Fog
12:35 AM 41.0°F 39.2°F 93% 30.27 in 0.2 miles Calm Calm - N/A Fog Fog
12:55 AM 41.0°F 41.0°F 100% 30.26 in 0.2 miles Calm Calm - N/A Fog Fog
1:15 AM 41.0°F 41.0°F 100% 30.25 in 0.2 miles Calm Calm - N/A Fog Fog
1:35 AM 41.0°F 41.0°F 100% 30.24 in 0.2 miles Calm Calm - N/A Fog Fog
1:55 AM 41.0°F 41.0°F 100% 30.24 in 0.2 miles NNE 3.5 mph - N/A Fog Fog
2:15 AM 41.0°F 41.0°F 100% 30.23 in 0.2 miles Calm Calm - N/A Fog Fog
2:35 AM 41.0°F 41.0°F 100% 30.23 in 0.2 miles Calm Calm - N/A Fog Fog
2:55 AM 41.0°F 41.0°F 100% 30.22 in 0.2 miles Calm Calm - N/A Fog Fog
3:15 AM 41.0°F 41.0°F 100% 30.22 in 0.5 miles Calm Calm - N/A Fog Fog
3:35 AM 41.0°F 41.0°F 100% 30.21 in 0.8 miles NNE 3.5 mph - N/A   Overcast
3:55 AM 41.0°F 41.0°F 100% 30.20 in 0.8 miles NNE 9.2 mph - N/A   Overcast
4:15 AM 41.0°F 41.0°F 100% 30.20 in 1.0 miles NNE 6.9 mph - N/A   Overcast
4:35 AM 41.0°F 41.0°F 100% 30.19 in 1.0 miles NNE 8.1 mph - N/A   Overcast
4:55 AM 41.0°F 41.0°F 100% 30.19 in 2.5 miles NE 8.1 mph - N/A   Overcast
5:15 AM 41.0°F 41.0°F 100% 30.19 in 3.0 miles NE 5.8 mph - N/A   Overcast
5:35 AM 41.0°F 41.0°F 100% 30.18 in 2.5 miles NNE 6.9 mph - N/A   Overcast
5:55 AM 41.0°F 41.0°F 100% 30.17 in 1.2 miles NNE 6.9 mph - N/A   Overcast
6:15 AM 41.0°F 41.0°F 100% 30.17 in 4.0 miles NNE 9.2 mph - N/A   Overcast
6:55 AM 41.0°F 39.2°F 93% 30.15 in 9.0 miles NNE 8.1 mph - N/A   Overcast
7:15 AM 41.0°F 39.2°F 93% 30.15 in 10.0 miles NE 6.9 mph - N/A   Overcast
7:35 AM 41.0°F 41.0°F 100% 30.15 in 10.0 miles NNE 5.8 mph - N/A   Overcast
8:15 AM 41.0°F 41.0°F 100% 30.13 in 10.0 miles NE 6.9 mph - N/A   Overcast
8:35 AM 41.0°F 41.0°F 100% 30.13 in 10.0 miles NE 5.8 mph - N/A   Overcast
8:55 AM 42.8°F 41.0°F 93% 30.13 in 9.0 miles NNE 10.4 mph - N/A   Overcast
9:15 AM 42.8°F 41.0°F 93% 30.13 in 10.0 miles NNE 10.4 mph - N/A   Overcast
9:35 AM 42.8°F 39.2°F 87% 30.12 in 10.0 miles NE 8.1 mph - N/A   Overcast
9:55 AM 42.8°F 39.2°F 87% 30.12 in 10.0 miles NNE 6.9 mph - N/A   Overcast
10:15 AM 42.8°F 39.2°F 87% 30.12 in 9.0 miles North 5.8 mph - N/A   Overcast
10:35 AM 42.8°F 39.2°F 87% 30.11 in 10.0 miles North 3.5 mph - N/A   Overcast
10:55 AM 42.8°F 39.2°F 87% 30.10 in 8.0 miles NNE 5.8 mph - N/A   Overcast
11:15 AM 42.8°F 39.2°F 87% 30.09 in 9.0 miles Calm Calm - N/A   Overcast
11:35 AM 42.8°F 39.2°F 87% 30.08 in 5.0 miles NNE 4.6 mph - N/A   Overcast
12:15 PM 44.6°F 39.2°F 81% 30.07 in 5.0 miles Calm Calm - N/A   Overcast
12:35 PM 44.6°F 39.2°F 81% 30.06 in 10.0 miles Calm Calm - N/A   Overcast
12:55 PM 44.6°F 39.2°F 81% 30.05 in 10.0 miles Calm Calm - N/A   Overcast
1:15 PM 44.6°F 39.2°F 81% 30.05 in 10.0 miles Calm Calm - N/A   Overcast
1:35 PM 44.6°F 39.2°F 81% 30.05 in 10.0 miles Calm Calm - N/A   Overcast
1:55 PM 44.6°F 39.2°F 81% 30.04 in 10.0 miles Calm Calm - N/A   Overcast
2:15 PM 46.4°F 41.0°F 81% 30.03 in 9.0 miles East 5.8 mph - N/A   Overcast
2:35 PM 44.6°F 39.2°F 81% 30.03 in 10.0 miles Calm Calm - N/A   Mostly Cloudy
2:55 PM 46.4°F 41.0°F 81% 30.02 in 10.0 miles Calm Calm - N/A   Overcast
3:15 PM 46.4°F 41.0°F 81% 30.02 in 10.0 miles ESE 4.6 mph - N/A   Overcast
3:35 PM 44.6°F 41.0°F 87% 30.02 in 10.0 miles SE 3.5 mph - N/A   Overcast
3:55 PM 44.6°F 41.0°F 87% 30.02 in 10.0 miles SE 3.5 mph - N/A   Overcast
4:15 PM 44.6°F 41.0°F 87% 30.01 in 6.0 miles Calm Calm - N/A   Overcast
4:35 PM 44.6°F 41.0°F 87% 30.01 in 10.0 miles ENE 3.5 mph - N/A   Overcast
5:35 PM 42.8°F 41.0°F 93% 30.00 in 10.0 miles Calm Calm - N/A   Overcast
6:15 PM 42.8°F 41.0°F 93% 30.00 in 10.0 miles ESE 4.6 mph - N/A   Overcast
6:35 PM 42.8°F 41.0°F 93% 29.99 in 9.0 miles ESE 4.6 mph - N/A   Overcast
6:55 PM 42.8°F 41.0°F 93% 29.99 in 6.0 miles East 3.5 mph - N/A   Overcast
7:15 PM 42.8°F 41.0°F 93% 29.99 in 9.0 miles ESE 3.5 mph - N/A   Overcast
7:35 PM 42.8°F 39.2°F 87% 29.98 in 10.0 miles Calm Calm - N/A   Overcast
7:55 PM 41.0°F 41.0°F 100% 29.98 in 10.0 miles Calm Calm - N/A   Overcast
8:15 PM 41.0°F 39.2°F 93% 29.98 in 8.0 miles Calm Calm - N/A   Overcast
8:35 PM 41.0°F 41.0°F 100% 29.98 in 3.0 miles Calm Calm - N/A   Overcast
8:55 PM 41.0°F 41.0°F 100% 29.98 in 4.0 miles Calm Calm - N/A   Overcast
9:15 PM 41.0°F 39.2°F 93% 29.98 in 2.5 miles Calm Calm - N/A   Overcast
9:35 PM 41.0°F 39.2°F 93% 29.98 in 2.5 miles SSW 3.5 mph - N/A   Overcast
9:55 PM 41.0°F 39.2°F 93% 29.98 in 2.0 miles South 4.6 mph - N/A   Overcast
10:15 PM 41.0°F 39.2°F 93% 29.98 in 1.5 miles Calm Calm - N/A   Overcast
10:35 PM 41.0°F 39.2°F 93% 29.97 in 1.8 miles SSE 3.5 mph - N/A   Overcast
10:55 PM 41.0°F 39.2°F 93% 29.97 in 1.8 miles Calm Calm - N/A   Overcast
11:15 PM 41.0°F 39.2°F 93% 29.97 in 1.2 miles Calm Calm - N/A   Overcast
11:35 PM 41.0°F 39.2°F 93% 29.97 in 1.8 miles Calm Calm - N/A   Overcast
Moon Phase
Nov. 15 Nov. 20 Nov. 28 Dec. 06 Dec. 13
Sunrise:07:15 AM (PST) Moon Rise:09:21 AM (PST)11/15
Sunset:04:37 PM (PST) Moon Set:06:30 PM (PST)11/15

Copyright © 2014 The Weather Underground, Inc.